Date String (YYYY-MM-DD hh:mm:ss) UTC,Instrument flags,Ambient pressure (hPa),Sample flow (lpm),Bypass flow (lpm),Sample temperature (°C),Ambient temperature (°C),ASC tube jacket temperature (°C),LED temperature (°C),Box temperature (°C),Sample RH (%),Span deviation,Mass concentration (μg/m³),Mass concentration (μg/m³),Mass concentration (μg/m³)
DateTimeUTC,F1_M11,P_M11,Q1_M11,Q2_M11,T1_M11,T2_M11,T3_M11,T4_M11,T5_M11,U1_M11,ZSPAN_M11,X2_M11,X0_M11,X1_M11
2021-10-02 05:00:00,,0831.0,5.01,0.00,30.3,29.3,00.0,39.4,32.0,20.6,0000.9,0008.44,0019.96,0006.69
2021-10-02 05:01:00,,0831.1,5.01,0.00,30.3,29.3,00.0,39.4,32.0,20.5,0000.9,0008.39,0019.56,0006.68
2021-10-02 05:02:00,,0831.1,4.99,0.00,30.3,29.3,00.0,39.4,32.0,20.2,0000.8,0008.30,0019.42,0006.68
2021-10-02 05:03:00,,0831.1,4.99,0.00,30.3,29.3,00.0,39.4,32.0,20.2,0001.1,0008.24,0019.58,0006.68
2021-10-02 05:04:00,,0831.1,5.03,0.00,30.3,29.3,00.0,39.4,32.0,20.1,0001.1,0008.18,0019.25,0006.69
2021-10-02 05:05:00,,0831.1,4.99,0.00,30.3,29.3,00.0,39.4,32.0,20.1,0000.9,0008.10,0018.25,0006.70
2021-10-02 05:06:00,,0831.2,5.00,0.00,30.3,29.3,00.0,39.4,32.0,20.0,0000.8,0008.04,0016.84,0006.71
2021-10-02 05:07:00,,0831.1,5.01,0.00,30.3,29.3,00.0,39.4,32.0,20.0,0000.7,0007.94,0016.66,0006.72
2021-10-02 05:08:00,,0831.1,5.01,0.00,30.3,29.3,00.0,39.4,32.0,20.0,0000.8,0007.87,0016.36,0006.72
2021-10-02 05:09:00,,0831.2,5.01,0.00,30.3,29.3,00.0,39.4,32.0,19.9,0001.0,0007.82,0016.44,0006.71
2021-10-02 05:10:00,,0831.1,5.00,0.00,30.3,29.3,00.0,39.4,32.0,20.0,0001.1,0007.77,0017.08,0006.69
2021-10-02 05:11:00,,0831.1,5.00,0.00,30.3,29.3,00.0,39.4,32.0,19.9,0001.6,0007.66,0016.98,0006.65
2021-10-02 05:12:00,,0831.1,5.01,0.00,30.3,29.3,00.0,39.4,32.0,19.9,0001.6,0007.62,0016.58,0006.63
2021-10-02 05:13:00,,0831.1,4.99,0.00,30.3,29.3,00.0,39.4,32.0,19.8,0001.5,0007.61,0016.28,0006.61
2021-10-02 05:14:00,,0831.1,5.01,0.00,30.3,29.3,00.0,39.5,32.0,19.8,0001.5,0007.56,0016.45,0006.58
2021-10-02 05:15:00,,0831.1,5.00,0.00,30.3,29.3,00.0,39.5,32.0,19.8,0001.7,0007.45,0016.39,0006.55
2021-10-02 05:16:00,,0831.1,5.01,0.00,30.3,29.3,00.0,39.5,32.1,19.8,0002.0,0007.43,0016.62,0006.54
2021-10-02 05:17:00,,0831.1,4.99,0.00,30.4,29.3,00.0,39.5,32.1,19.7,0002.2,0007.38,0016.58,0006.50
2021-10-02 05:18:00,,0831.1,5.00,0.00,30.4,29.4,00.0,39.5,32.1,19.7,0002.0,0007.33,0016.19,0006.46
2021-10-02 05:19:00,,0831.1,5.02,0.00,30.4,29.3,00.0,39.5,32.1,19.7,0002.0,0007.27,0016.19,0006.40
2021-10-02 05:20:00,,0831.1,5.01,0.00,30.4,29.3,00.0,39.5,32.1,19.7,0002.0,0007.17,0015.70,0006.36
2021-10-02 05:21:00,,0831.1,4.99,0.00,30.4,29.3,00.0,39.5,32.1,19.6,0001.9,0007.12,0015.27,0006.34
2021-10-02 05:22:00,,0831.1,5.01,0.00,30.4,29.3,00.0,39.5,32.1,19.6,0001.8,0007.09,0015.55,0006.34
2021-10-02 05:23:00,,0831.1,5.00,0.00,30.4,29.3,00.0,39.5,32.0,19.6,0001.9,0007.05,0016.02,0006.33
2021-10-02 05:24:00,,0831.1,4.99,0.00,30.4,29.3,00.0,39.5,32.0,19.6,0002.0,0006.99,0015.71,0006.30
2021-10-02 05:25:00,,0831.1,5.01,0.00,30.4,29.3,00.0,39.5,32.0,19.6,0001.8,0006.96,0015.29,0006.29
2021-10-02 05:26:00,,0831.1,4.99,0.00,30.4,29.3,00.0,39.5,32.0,19.6,0001.9,0006.95,0014.39,0006.28
2021-10-02 05:27:00,,0831.1,5.00,0.00,30.4,29.3,00.0,39.5,32.0,19.6,0001.7,0006.93,0014.09,0006.24
2021-10-02 05:28:00,,0831.1,5.01,0.00,30.4,29.3,00.0,39.5,32.0,19.5,0001.5,0006.94,0014.63,0006.23
2021-10-02 05:29:00,,0831.1,4.99,0.00,30.4,29.3,00.0,39.5,32.0,19.5,0001.7,0006.98,0014.95,0006.25
2021-10-02 05:30:00,,0831.1,5.01,0.00,30.4,29.3,00.0,39.5,32.0,19.5,0001.8,0007.01,0014.94,0006.25
2021-10-02 05:31:00,,0831.1,4.98,0.00,30.4,29.3,00.0,39.5,32.1,19.5,0001.7,0007.05,0015.13,0006.26
2021-10-02 05:32:00,,0831.1,5.02,0.00,30.4,29.3,00.0,39.5,32.0,19.5,0001.7,0007.07,0015.20,0006.25
2021-10-02 05:33:00,,0831.1,5.00,0.00,30.4,29.4,00.0,39.5,32.1,19.5,0001.6,0007.07,0014.98,0006.24
2021-10-02 05:34:00,,0831.1,4.97,0.00,30.4,29.4,00.0,39.5,32.1,19.7,0001.5,0007.06,0014.12,0006.24
2021-10-02 05:35:00,,0831.1,4.99,0.00,30.4,29.4,00.0,39.5,32.1,19.6,0001.5,0007.03,0013.89,0006.24
2021-10-02 05:36:00,,0831.1,5.00,0.00,30.3,28.1,00.0,39.5,31.8,19.6,0001.6,0007.01,0013.47,0006.23
2021-10-02 05:37:00,,0831.1,5.00,0.00,30.1,26.3,00.0,39.4,31.3,19.8,0001.3,0007.01,0013.88,0006.22
2021-10-02 05:38:00,,0831.1,5.00,0.00,30.0,26.1,00.0,39.4,31.2,19.9,0001.2,0006.98,0013.76,0006.22
2021-10-02 05:39:00,,0831.1,5.01,0.00,29.9,26.5,00.0,39.3,31.2,20.3,0001.4,0006.93,0013.04,0006.21
2021-10-02 05:40:00,,0831.1,5.00,0.00,29.8,26.9,00.0,39.2,31.2,20.3,0001.5,0006.88,0012.67,0006.19
2021-10-02 05:41:00,,0831.1,5.01,0.00,29.8,27.3,00.0,39.2,31.2,20.4,0001.3,0006.82,0012.39,0006.19
2021-10-02 05:42:00,,0831.2,4.99,0.00,29.8,27.6,00.0,39.1,31.3,20.3,0001.3,0006.78,0012.14,0006.18
2021-10-02 05:43:00,,0831.2,5.00,0.00,29.8,27.8,00.0,39.1,31.3,20.3,0001.3,0006.82,0011.83,0006.19
2021-10-02 05:44:00,,0831.2,5.01,0.00,29.8,28.0,00.0,39.1,31.4,20.5,0001.2,0006.84,0011.95,0006.20
2021-10-02 05:45:00,,0831.2,5.00,0.00,29.8,28.1,00.0,39.1,31.4,20.3,0001.0,0006.84,0011.92,0006.20
2021-10-02 05:46:00,,0831.2,5.00,0.00,29.8,28.2,00.0,39.0,31.4,20.3,0000.9,0006.85,0012.21,0006.22
2021-10-02 05:47:00,,0831.2,4.99,0.00,29.8,28.3,00.0,39.0,31.4,20.2,0000.9,0006.85,0012.23,0006.23
2021-10-02 05:48:00,,0831.2,4.99,0.00,29.8,28.4,00.0,39.0,31.5,20.3,0001.1,0006.86,0011.92,0006.23
2021-10-02 05:49:00,,0831.2,5.01,0.00,29.8,28.5,00.0,39.0,31.5,20.2,0001.1,0006.89,0011.81,0006.25
2021-10-02 05:50:00,,0831.2,4.99,0.00,29.8,28.5,00.0,39.0,31.5,20.3,0001.0,0006.86,0012.26,0006.25
2021-10-02 05:51:00,,0831.2,5.01,0.00,29.8,28.6,00.0,39.0,31.5,20.2,0001.0,0006.87,0012.49,0006.25
2021-10-02 05:52:00,,0831.2,5.00,0.00,29.8,28.6,00.0,39.0,31.5,20.1,0001.0,0006.92,0013.08,0006.27
2021-10-02 05:53:00,,0831.2,4.99,0.00,29.8,28.7,00.0,39.0,31.5,20.2,0000.8,0006.95,0013.31,0006.27
2021-10-02 05:54:00,,0831.2,5.00,0.00,29.8,28.7,00.0,39.0,31.5,20.2,0001.0,0006.90,0012.90,0006.27
2021-10-02 05:55:00,,0831.2,5.01,0.00,29.8,28.7,00.0,39.0,31.5,20.2,0001.1,0006.92,0012.58,0006.26
2021-10-02 05:56:00,,0831.2,5.01,0.00,29.9,28.8,00.0,39.0,31.6,20.2,0001.2,0006.96,0013.51,0006.26
2021-10-02 05:57:00,,0831.2,4.99,0.00,29.9,28.8,00.0,39.0,31.6,20.3,0001.4,0006.95,0014.17,0006.26
2021-10-02 05:58:00,,0831.2,5.00,0.00,29.9,28.8,00.0,39.0,31.6,20.2,0001.5,0006.95,0014.76,0006.26
2021-10-02 05:59:00,,0831.2,5.00,0.00,29.9,28.8,00.0,39.0,31.7,20.1,0001.5,0006.95,0015.50,0006.26
